| time (UTC) | temp C | wind direction | speed KPH | gust KPH | rain 1hr cm | rain 24hr cm | rain mn cm | humidity % | barometer mb |
| 20260503222725 | 25 | 282 | 4.8 | 14.5 | 0.00 | 0.00 | 0.00 | 31 | 1009.8 |
| 20260503222237 | 25 | 296 | 4.8 | 14.5 | 0.00 | 0.00 | 0.00 | 33 | 1009.8 |
| 20260503221722 | 24 | 66 | 1.6 | 12.9 | 0.00 | 0.00 | 0.00 | 31 | 1009.8 |
| 20260503221507 | 24 | 10 | 1.6 | 14.5 | 0.00 | 0.00 | 0.00 | 32 | 1008.9 |
| 20260503221257 | 24 | 57 | 3.2 | 17.7 | 0.00 | 0.00 | 0.00 | 33 | 1009.8 |
| 20260503220746 | 24 | 45 | 6.4 | 17.7 | 0.00 | 0.00 | 0.00 | 33 | 1009.8 |
| 20260503220230 | 25 | 284 | 4.8 | 16.1 | 0.00 | 0.00 | 0.00 | 29 | 1009.9 |
| 20260503220100 | 24 | 346 | 6.4 | 16.1 | 0.00 | 0.00 | 0.00 | 33 | 1009.0 |
| 20260503215743 | 24 | 240 | 11.3 | 20.9 | 0.00 | 0.00 | 0.00 | 31 | 1009.8 |
| 20260503215221 | 25 | 288 | 12.9 | 25.7 | 0.00 | 0.00 | 0.00 | 32 | 1010.0 |
| 20260503214734 | 25 | 271 | 14.5 | 25.7 | 0.00 | 0.00 | 0.00 | 31 | 1010.2 |
| 20260503214558 | 24 | 257 | 11.3 | 25.7 | 0.00 | 0.00 | 0.00 | 33 | 1009.3 |
| 20260503214247 | 24 | 288 | 14.5 | 25.7 | 0.00 | 0.00 | 0.00 | 34 | 1010.1 |
| 20260503213729 | 24 | 281 | 1.6 | 9.7 | 0.00 | 0.00 | 0.00 | 31 | 1010.3 |
| 20260503213243 | 23 | 311 | 4.8 | 9.7 | 0.00 | 0.00 | 0.00 | 36 | 1010.3 |
| 20260503213053 | 23 | 321 | 4.8 | 12.9 | 0.00 | 0.00 | 0.00 | 32 | 1009.5 |
| 20260503212726 | 23 | 229 | 4.8 | 12.9 | 0.00 | 0.00 | 0.00 | 31 | 1010.3 |
| 20260503212237 | 24 | 261 | 6.4 | 17.7 | 0.00 | 0.00 | 0.00 | 32 | 1010.5 |
| 20260503211723 | 25 | 341 | 11.3 | 20.9 | 0.00 | 0.00 | 0.00 | 32 | 1010.6 |
| 20260503211554 | 24 | 340 | 8.0 | 20.9 | 0.00 | 0.00 | 0.00 | 34 | 1009.8 |
| 20260503211252 | 25 | 298 | 14.5 | 20.9 | 0.00 | 0.00 | 0.00 | 33 | 1010.7 |
| 20260503210733 | 25 | 279 | 4.8 | 20.9 | 0.00 | 0.00 | 0.00 | 33 | 1010.8 |
| 20260503210244 | 24 | 322 | 6.4 | 19.3 | 0.00 | 0.00 | 0.00 | 33 | 1010.7 |
| 20260503210057 | 24 | 311 | 4.8 | 19.3 | 0.00 | 0.00 | 0.00 | 35 | 1009.9 |
| 20260503205726 | 24 | 355 | 12.9 | 20.9 | 0.00 | 0.00 | 0.00 | 34 | 1010.9 |
| 20260503205238 | 24 | 348 | 8.0 | 20.9 | 0.00 | 0.00 | 0.00 | 32 | 1010.9 |
| 20260503204721 | 24 | 24 | 4.8 | 17.7 | 0.00 | 0.00 | 0.00 | 34 | 1010.9 |
| 20260503204608 | 23 | 5 | 8.0 | 17.7 | 0.00 | 0.00 | 0.00 | 33 | 1010.1 |
| 20260503204256 | 23 | 303 | 11.3 | 17.7 | 0.00 | 0.00 | 0.00 | 32 | 1011.0 |
| 20260503203742 | 23 | 279 | 8.0 | 17.7 | 0.00 | 0.00 | 0.00 | 37 | 1011.2 |
| 20260503203223 | 24 | 317 | 8.0 | 17.7 | 0.00 | 0.00 | 0.00 | 32 | 1011.0 |
| 20260503203040 | 23 | 360 | 3.2 | 17.7 | 0.00 | 0.00 | 0.00 | 33 | 1010.4 |
| 20260503202735 | 23 | 44 | 3.2 | 20.9 | 0.00 | 0.00 | 0.00 | 31 | 1011.2 |
| 20260503202248 | 24 | 277 | 12.9 | 20.9 | 0.00 | 0.00 | 0.00 | 33 | 1011.4 |
| 20260503201731 | 24 | 334 | 14.5 | 24.1 | 0.00 | 0.00 | 0.00 | 31 | 1011.4 |
| 20260503201544 | 24 | 355 | 11.3 | 24.1 | 0.00 | 0.00 | 0.00 | 35 | 1010.6 |
| 20260503201244 | 24 | 360 | 14.5 | 24.1 | 0.00 | 0.00 | 0.00 | 31 | 1011.3 |
| 20260503200723 | 24 | 337 | 12.9 | 22.5 | 0.00 | 0.00 | 0.00 | 31 | 1011.6 |
| 20260503200234 | 23 | 346 | 11.3 | 22.5 | 0.00 | 0.00 | 0.00 | 34 | 1011.5 |
| 20260503200046 | 23 | 346 | 16.1 | 22.5 | 0.00 | 0.00 | 0.00 | 32 | 1010.8 |
| 20260503195742 | 23 | 317 | 11.3 | 20.9 | 0.00 | 0.00 | 0.00 | 34 | 1011.5 |
| 20260503195224 | 23 | 323 | 14.5 | 32.2 | 0.00 | 0.00 | 0.00 | 32 | 1011.6 |
| 20260503194737 | 24 | 355 | 19.3 | 32.2 | 0.00 | 0.00 | 0.00 | 30 | 1011.6 |
| 20260503194608 | 23 | 42 | 12.9 | 32.2 | 0.00 | 0.00 | 0.00 | 33 | 1010.7 |
| 20260503194251 | 24 | 337 | 24.1 | 32.2 | 0.00 | 0.00 | 0.00 | 32 | 1011.6 |
| 20260503193735 | 24 | 360 | 4.8 | 29.0 | 0.00 | 0.00 | 0.00 | 31 | 1011.6 |
| 20260503193248 | 25 | 319 | 12.9 | 29.0 | 0.00 | 0.00 | 0.00 | 32 | 1011.7 |
| 20260503193053 | 24 | 302 | 17.7 | 29.0 | 0.00 | 0.00 | 0.00 | 34 | 1010.9 |
| 20260503192732 | 25 | 336 | 19.3 | 30.6 | 0.00 | 0.00 | 0.00 | 32 | 1011.7 |
| 20260503192221 | 24 | 15 | 22.5 | 30.6 | 0.00 | 0.00 | 0.00 | 32 | 1011.7 |
| 20260503191747 | 24 | 333 | 19.3 | 30.6 | 0.00 | 0.00 | 0.00 | 32 | 1011.7 |
| 20260503191535 | 24 | 322 | 22.5 | 30.6 | 0.00 | 0.00 | 0.00 | 30 | 1010.9 |
| 20260503191232 | 25 | 323 | 17.7 | 27.4 | 0.00 | 0.00 | 0.00 | 34 | 1011.6 |
| 20260503190743 | 24 | 14 | 20.9 | 30.6 | 0.00 | 0.00 | 0.00 | 31 | 1011.7 |
| 20260503190226 | 24 | 5 | 12.9 | 30.6 | 0.00 | 0.00 | 0.00 | 32 | 1011.7 |
| 20260503190046 | 23 | 14 | 17.7 | 30.6 | 0.00 | 0.00 | 0.00 | 32 | 1011.0 |
| 20260503185739 | 24 | 340 | 19.3 | 29.0 | 0.00 | 0.00 | 0.00 | 31 | 1011.9 |
| 20260503185248 | 24 | 355 | 16.1 | 25.7 | 0.00 | 0.00 | 0.00 | 33 | 1011.7 |
| 20260503184739 | 23 | 15 | 14.5 | 29.0 | 0.00 | 0.00 | 0.00 | 32 | 1011.8 |
| 20260503184529 | 23 | 355 | 16.1 | 29.0 | 0.00 | 0.00 | 0.00 | 33 | 1011.1 |
| 20260503184223 | 23 | 5 | 19.3 | 30.6 | 0.00 | 0.00 | 0.00 | 32 | 1011.9 |
| 20260503183730 | 23 | 344 | 22.5 | 30.6 | 0.00 | 0.00 | 0.00 | 32 | 1011.9 |
| 20260503183239 | 24 | 317 | 14.5 | 27.4 | 0.00 | 0.00 | 0.00 | 33 | 1011.8 |
| 20260503183025 | 23 | 355 | 6.4 | 27.4 | 0.00 | 0.00 | 0.00 | 35 | 1011.2 |
| 20260503182724 | 23 | 355 | 12.9 | 27.4 | 0.00 | 0.00 | 0.00 | 33 | 1011.9 |
| 20260503182235 | 23 | 21 | 12.9 | 29.0 | 0.00 | 0.00 | 0.00 | 32 | 1012.2 |
| 20260503181745 | 23 | 330 | 22.5 | 30.6 | 0.00 | 0.00 | 0.00 | 32 | 1012.2 |
| 20260503181532 | 22 | 19 | 19.3 | 30.6 | 0.00 | 0.00 | 0.00 | 34 | 1011.4 |
| 20260503181229 | 23 | 11 | 22.5 | 30.6 | 0.00 | 0.00 | 0.00 | 33 | 1012.2 |
| 20260503180739 | 22 | 5 | 17.7 | 30.6 | 0.00 | 0.00 | 0.00 | 32 | 1012.3 |
| 20260503180223 | 22 | 11 | 11.3 | 33.8 | 0.00 | 0.00 | 0.00 | 33 | 1012.3 |
| 20260503180051 | 22 | 339 | 16.1 | 33.8 | 0.00 | 0.00 | 0.00 | 30 | 1011.6 |
| 20260503175733 | 23 | 360 | 27.4 | 33.8 | 0.00 | 0.00 | 0.00 | 31 | 1012.4 |
| 20260503175244 | 23 | 15 | 22.5 | 30.6 | 0.00 | 0.00 | 0.00 | 34 | 1012.3 |
| 20260503174727 | 22 | 22 | 14.5 | 35.4 | 0.00 | 0.00 | 0.00 | 32 | 1012.4 |
| 20260503174551 | 22 | 5 | 14.5 | 35.4 | 0.00 | 0.00 | 0.00 | 31 | 1011.8 |
| 20260503174240 | 22 | 333 | 20.9 | 35.4 | 0.00 | 0.00 | 0.00 | 35 | 1012.6 |
| 20260503173721 | 22 | 336 | 19.3 | 33.8 | 0.00 | 0.00 | 0.00 | 33 | 1012.5 |
| 20260503173231 | 22 | 355 | 14.5 | 27.4 | 0.00 | 0.00 | 0.00 | 32 | 1012.6 |
| 20260503173147 | 22 | 305 | 12.9 | 27.4 | 0.00 | 0.00 | 0.00 | 35 | 1011.9 |
| 20260503172743 | 22 | 360 | 19.3 | 27.4 | 0.00 | 0.00 | 0.00 | 33 | 1012.6 |
| 20260503172227 | 22 | 329 | 17.7 | 24.1 | 0.00 | 0.00 | 0.00 | 35 | 1012.6 |
| 20260503171736 | 22 | 335 | 12.9 | 20.9 | 0.00 | 0.00 | 0.00 | 37 | 1012.6 |
| 20260503171600 | 22 | 5 | 12.9 | 20.9 | 0.00 | 0.00 | 0.00 | 35 | 1011.9 |
| 20260503171502 | 22 | 355 | 9.7 | 25.7 | 0.00 | 0.00 | 0.00 | 34 | 1011.9 |
| 20260503171250 | 23 | 12 | 11.3 | 25.7 | 0.00 | 0.00 | 0.00 | 36 | 1012.7 |
| 20260503170729 | 22 | 317 | 16.1 | 25.7 | 0.00 | 0.00 | 0.00 | 37 | 1012.7 |
| 20260503170240 | 22 | 355 | 12.9 | 24.1 | 0.00 | 0.00 | 0.00 | 40 | 1012.6 |
| 20260503150747 | 18 | 303 | 11.3 | 22.5 | 0.00 | 0.00 | 0.00 | 47 | 1012.5 |
| 20260503150232 | 18 | 325 | 12.9 | 22.5 | 0.00 | 0.00 | 0.00 | 45 | 1012.5 |
| 20260503140223 | 16 | 260 | 19.3 | 29.0 | 0.00 | 0.00 | 0.00 | 47 | 1012.1 |
| 20260503131247 | 14 | 198 | 19.3 | 37.0 | 0.00 | 0.00 | 0.00 | 52 | 1011.9 |
| 20260503130747 | 14 | 259 | 24.1 | 37.0 | 0.00 | 0.00 | 0.00 | 52 | 1012.0 |
| 20260503130231 | 13 | 246 | 22.5 | 35.4 | 0.00 | 0.00 | 0.00 | 52 | 1012.0 |
| 20260503130113 | 13 | 205 | 20.9 | 35.4 | 0.00 | 0.00 | 0.00 | 52 | 1011.5 |
| 20260503110810 | 11 | 237 | 9.7 | 16.1 | 0.00 | 0.00 | 0.00 | 51 | 1011.4 |
| 20260503110227 | 12 | 272 | 9.7 | 19.3 | 0.00 | 0.00 | 0.00 | 50 | 1011.3 |
| 20260503090229 | 12 | 223 | 16.1 | 25.7 | 0.00 | 0.00 | 0.00 | 50 | 1011.3 |
| 20260503081535 | 10 | 197 | 9.7 | 16.1 | 0.00 | 0.00 | 0.00 | 53 | 1011.7 |
| 20260503081230 | 10 | 188 | 11.3 | 17.7 | 0.00 | 0.00 | 0.00 | 53 | 1011.9 |
| 20260503080741 | 10 | 205 | 12.9 | 17.7 | 0.00 | 0.00 | 0.00 | 53 | 1011.9 |
| 20260503080224 | 11 | 173 | 11.3 | 17.7 | 0.00 | 0.00 | 0.00 | 52 | 1011.9 |
| 20260503072805 | 11 | 186 | 11.3 | 19.3 | 0.00 | 0.00 | 0.00 | 51 | 1012.1 |
| 20260503072227 | 11 | 203 | 12.9 | 19.3 | 0.00 | 0.00 | 0.00 | 51 | 1012.1 |
| 20260503071739 | 11 | 178 | 12.9 | 16.1 | 0.00 | 0.00 | 0.00 | 51 | 1012.2 |
| 20260503071519 | 11 | 197 | 11.3 | 19.3 | 0.00 | 0.00 | 0.00 | 51 | 1012.1 |
| 20260503071225 | 11 | 183 | 12.9 | 20.9 | 0.00 | 0.00 | 0.00 | 50 | 1012.2 |
| 20260503070735 | 11 | 189 | 11.3 | 20.9 | 0.00 | 0.00 | 0.00 | 50 | 1012.3 |
| 20260503070243 | 11 | 151 | 11.3 | 19.3 | 0.00 | 0.00 | 0.00 | 50 | 1012.4 |
| 20260503060232 | 11 | 179 | 11.3 | 17.7 | 0.00 | 0.00 | 0.00 | 48 | 1013.1 |
| 20260503054736 | 11 | 164 | 9.7 | 17.7 | 0.00 | 0.00 | 0.00 | 48 | 1013.3 |
| 20260503054558 | 11 | 192 | 9.7 | 17.7 | 0.00 | 0.00 | 0.00 | 48 | 1013.2 |
| 20260503054250 | 11 | 211 | 9.7 | 19.3 | 0.00 | 0.00 | 0.00 | 48 | 1013.2 |
| 20260503053732 | 11 | 194 | 9.7 | 20.9 | 0.00 | 0.00 | 0.00 | 48 | 1013.3 |
| 20260503053243 | 11 | 164 | 14.5 | 20.9 | 0.00 | 0.00 | 0.00 | 48 | 1013.2 |
| 20260503053053 | 11 | 218 | 12.9 | 20.9 | 0.00 | 0.00 | 0.00 | 48 | 1013.2 |
| 20260503052728 | 11 | 164 | 12.9 | 20.9 | 0.00 | 0.00 | 0.00 | 48 | 1013.1 |
| 20260503052300 | 11 | 185 | 12.9 | 20.9 | 0.00 | 0.00 | 0.00 | 48 | 1013.2 |
| 20260503051722 | 12 | 204 | 14.5 | 20.9 | 0.00 | 0.00 | 0.00 | 48 | 1013.3 |
| 20260503051534 | 11 | 175 | 11.3 | 24.1 | 0.00 | 0.00 | 0.00 | 48 | 1013.3 |
| 20260503051235 | 12 | 197 | 12.9 | 24.1 | 0.00 | 0.00 | 0.00 | 48 | 1013.4 |
| 20260503050740 | 12 | 196 | 12.9 | 22.5 | 0.00 | 0.00 | 0.00 | 47 | 1013.4 |
| 20260503050223 | 12 | 165 | 14.5 | 20.9 | 0.00 | 0.00 | 0.00 | 47 | 1013.4 |
| 20260503050032 | 12 | 195 | 12.9 | 20.9 | 0.00 | 0.00 | 0.00 | 47 | 1013.4 |
| 20260503045726 | 12 | 205 | 12.9 | 19.3 | 0.00 | 0.00 | 0.00 | 47 | 1013.5 |
| 20260503045238 | 12 | 192 | 12.9 | 20.9 | 0.00 | 0.00 | 0.00 | 47 | 1013.5 |
| 20260503044723 | 12 | 175 | 12.9 | 22.5 | 0.00 | 0.00 | 0.00 | 46 | 1013.5 |
| 20260503044539 | 12 | 184 | 12.9 | 22.5 | 0.00 | 0.00 | 0.00 | 46 | 1013.5 |
| 20260503044235 | 12 | 200 | 14.5 | 22.5 | 0.00 | 0.00 | 0.00 | 46 | 1013.5 |
| 20260503043747 | 12 | 213 | 14.5 | 22.5 | 0.00 | 0.00 | 0.00 | 46 | 1013.5 |
| 20260503043234 | 12 | 194 | 14.5 | 24.1 | 0.00 | 0.00 | 0.00 | 45 | 1013.7 |
| 20260503043016 | 12 | 187 | 12.9 | 20.9 | 0.00 | 0.00 | 0.00 | 45 | 1013.6 |
| 20260503042747 | 12 | 211 | 14.5 | 20.9 | 0.00 | 0.00 | 0.00 | 45 | 1013.7 |
| 20260503042231 | 13 | 180 | 14.5 | 24.1 | 0.00 | 0.00 | 0.00 | 44 | 1013.8 |
| 20260503041803 | 13 | 191 | 14.5 | 29.0 | 0.00 | 0.00 | 0.00 | 44 | 1014.0 |
| 20260503041553 | 13 | 198 | 12.9 | 30.6 | 0.00 | 0.00 | 0.00 | 43 | 1013.9 |
| 20260503041227 | 13 | 217 | 17.7 | 30.6 | 0.00 | 0.00 | 0.00 | 43 | 1013.8 |
| 20260503040757 | 13 | 211 | 14.5 | 30.6 | 0.00 | 0.00 | 0.00 | 43 | 1013.9 |
| 20260503040247 | 13 | 210 | 14.5 | 27.4 | 0.00 | 0.00 | 0.00 | 43 | 1014.0 |
| 20260503040019 | 13 | 183 | 12.9 | 27.4 | 0.00 | 0.00 | 0.00 | 43 | 1014.0 |
| 20260503035736 | 13 | 172 | 17.7 | 27.4 | 0.00 | 0.00 | 0.00 | 42 | 1014.1 |
| 20260503035247 | 13 | 223 | 14.5 | 25.7 | 0.00 | 0.00 | 0.00 | 42 | 1014.2 |
| 20260503034730 | 13 | 173 | 17.7 | 29.0 | 0.00 | 0.00 | 0.00 | 42 | 1014.2 |
| 20260503034526 | 13 | 179 | 14.5 | 29.0 | 0.00 | 0.00 | 0.00 | 41 | 1014.1 |
| 20260503034245 | 13 | 145 | 16.1 | 29.0 | 0.00 | 0.00 | 0.00 | 41 | 1014.3 |
| 20260503033727 | 13 | 175 | 17.7 | 29.0 | 0.00 | 0.00 | 0.00 | 41 | 1014.3 |
| 20260503033238 | 14 | 142 | 16.1 | 25.7 | 0.00 | 0.00 | 0.00 | 41 | 1014.4 |
| 20260503033024 | 13 | 160 | 16.1 | 25.7 | 0.00 | 0.00 | 0.00 | 40 | 1014.4 |
| 20260503032723 | 14 | 173 | 19.3 | 22.5 | 0.00 | 0.00 | 0.00 | 40 | 1014.5 |
| 20260503032234 | 14 | 169 | 17.7 | 24.1 | 0.00 | 0.00 | 0.00 | 40 | 1014.6 |
| 20260503031802 | 14 | 173 | 17.7 | 27.4 | 0.00 | 0.00 | 0.00 | 39 | 1014.6 |
| 20260503031510 | 13 | 184 | 17.7 | 20.9 | 0.00 | 0.00 | 0.00 | 39 | 1014.7 |
| 20260503031225 | 14 | 162 | 14.5 | 27.4 | 0.00 | 0.00 | 0.00 | 39 | 1014.7 |
| 20260503030736 | 14 | 170 | 16.1 | 27.4 | 0.00 | 0.00 | 0.00 | 39 | 1014.7 |
| 20260503030247 | 14 | 171 | 17.7 | 25.7 | 0.00 | 0.00 | 0.00 | 39 | 1014.8 |
| 20260503030017 | 13 | 171 | 17.7 | 25.7 | 0.00 | 0.00 | 0.00 | 38 | 1014.9 |
| 20260503025731 | 14 | 187 | 17.7 | 22.5 | 0.00 | 0.00 | 0.00 | 38 | 1014.8 |
| 20260503025305 | 14 | 180 | 16.1 | 24.1 | 0.00 | 0.00 | 0.00 | 38 | 1014.9 |
| 20260503024727 | 14 | 183 | 16.1 | 22.5 | 0.00 | 0.00 | 0.00 | 38 | 1015.0 |
| 20260503024609 | 13 | 167 | 14.5 | 22.5 | 0.00 | 0.00 | 0.00 | 38 | 1015.0 |
| 20260503024501 | 13 | 157 | 14.5 | 22.5 | 0.00 | 0.00 | 0.00 | 37 | 1015.1 |
| 20260503024236 | 14 | 163 | 14.5 | 19.3 | 0.00 | 0.00 | 0.00 | 37 | 1015.1 |
| 20260503023746 | 14 | 163 | 14.5 | 17.7 | 0.00 | 0.00 | 0.00 | 37 | 1015.2 |
| 20260503023228 | 14 | 171 | 14.5 | 19.3 | 0.00 | 0.00 | 0.00 | 36 | 1015.2 |
| 20260503023043 | 14 | 164 | 12.9 | 19.3 | 0.00 | 0.00 | 0.00 | 36 | 1015.3 |
| 20260503022739 | 15 | 190 | 11.3 | 16.1 | 0.00 | 0.00 | 0.00 | 36 | 1015.3 |
| 20260503022225 | 15 | 182 | 11.3 | 14.5 | 0.00 | 0.00 | 0.00 | 36 | 1015.3 |
| 20260503021737 | 15 | 153 | 9.7 | 14.5 | 0.00 | 0.00 | 0.00 | 36 | 1015.4 |
| 20260503021550 | 15 | 171 | 9.7 | 14.5 | 0.00 | 0.00 | 0.00 | 36 | 1015.4 |
| 20260503021250 | 15 | 167 | 9.7 | 14.5 | 0.00 | 0.00 | 0.00 | 36 | 1015.4 |
| 20260503020728 | 15 | 177 | 11.3 | 14.5 | 0.00 | 0.00 | 0.00 | 35 | 1015.4 |
| 20260503020239 | 15 | 156 | 9.7 | 12.9 | 0.00 | 0.00 | 0.00 | 35 | 1015.5 |
| 20260503020059 | 15 | 171 | 9.7 | 14.5 | 0.00 | 0.00 | 0.00 | 34 | 1015.5 |
| 20260503015724 | 16 | 178 | 9.7 | 12.9 | 0.00 | 0.00 | 0.00 | 35 | 1015.5 |
| 20260503015257 | 16 | 168 | 9.7 | 14.5 | 0.00 | 0.00 | 0.00 | 34 | 1015.5 |
| 20260503014747 | 16 | 168 | 8.0 | 11.3 | 0.00 | 0.00 | 0.00 | 34 | 1015.5 |
| 20260503014537 | 16 | 168 | 8.0 | 11.3 | 0.00 | 0.00 | 0.00 | 34 | 1015.6 |
| 20260503014230 | 16 | 169 | 8.0 | 11.3 | 0.00 | 0.00 | 0.00 | 33 | 1015.5 |
| 20260503013740 | 16 | 169 | 8.0 | 11.3 | 0.00 | 0.00 | 0.00 | 32 | 1015.5 |
| 20260503013310 | 17 | 169 | 8.0 | 11.3 | 0.00 | 0.00 | 0.00 | 32 | 1015.5 |
| 20260503013030 | 17 | 169 | 8.0 | 11.3 | 0.00 | 0.00 | 0.00 | 32 | 1015.6 |
| 20260503012733 | 17 | 170 | 8.0 | 9.7 | 0.00 | 0.00 | 0.00 | 32 | 1015.5 |
| 20260503012244 | 17 | 171 | 8.0 | 9.7 | 0.00 | 0.00 | 0.00 | 31 | 1015.5 |
| 20260503011727 | 17 | 170 | 6.4 | 9.7 | 0.00 | 0.00 | 0.00 | 31 | 1015.5 |
| 20260503011524 | 17 | 169 | 6.4 | 11.3 | 0.00 | 0.00 | 0.00 | 31 | 1015.6 |
| 20260503011241 | 18 | 171 | 8.0 | 11.3 | 0.00 | 0.00 | 0.00 | 31 | 1015.5 |
| 20260503010723 | 18 | 175 | 6.4 | 11.3 | 0.00 | 0.00 | 0.00 | 30 | 1015.6 |
| 20260503010257 | 18 | 182 | 6.4 | 11.3 | 0.00 | 0.00 | 0.00 | 30 | 1015.6 |
| 20260503005739 | 18 | 181 | 6.4 | 11.3 | 0.00 | 0.00 | 0.00 | 30 | 1015.6 |
| 20260503005222 | 18 | 208 | 8.0 | 12.9 | 0.00 | 0.00 | 0.00 | 30 | 1015.6 |
| 20260503004734 | 18 | 198 | 9.7 | 14.5 | 0.00 | 0.00 | 0.00 | 30 | 1015.6 |
| 20260503004503 | 18 | 219 | 8.0 | 14.5 | 0.00 | 0.00 | 0.00 | 28 | 1015.6 |
| 20260503004249 | 18 | 208 | 8.0 | 14.5 | 0.00 | 0.00 | 0.00 | 29 | 1015.6 |
| 20260503003735 | 19 | 223 | 9.7 | 14.5 | 0.00 | 0.00 | 0.00 | 29 | 1015.6 |
| 20260503003249 | 19 | 215 | 11.3 | 20.9 | 0.00 | 0.00 | 0.00 | 29 | 1015.6 |
| 20260503003049 | 18 | 225 | 11.3 | 20.9 | 0.00 | 0.00 | 0.00 | 28 | 1015.7 |
| 20260503002738 | 19 | 196 | 12.9 | 20.9 | 0.00 | 0.00 | 0.00 | 28 | 1015.6 |
| 20260503002222 | 19 | 218 | 11.3 | 19.3 | 0.00 | 0.00 | 0.00 | 28 | 1015.8 |
| 20260503001727 | 19 | 211 | 12.9 | 19.3 | 0.00 | 0.00 | 0.00 | 28 | 1015.8 |
| 20260503001553 | 19 | 192 | 12.9 | 19.3 | 0.00 | 0.00 | 0.00 | 28 | 1016.0 |
| 20260503001241 | 19 | 192 | 11.3 | 19.3 | 0.00 | 0.00 | 0.00 | 28 | 1015.9 |
| 20260503000724 | 20 | 228 | 14.5 | 24.1 | 0.00 | 0.00 | 0.00 | 27 | 1015.9 |
| 20260503000237 | 20 | 202 | 14.5 | 24.1 | 0.00 | 0.00 | 0.00 | 27 | 1015.9 |
| 20260503000110 | 20 | 244 | 14.5 | 24.1 | 0.00 | 0.00 | 0.00 | 27 | 1016.2 |
| 20260502235808 | 20 | 206 | 16.1 | 24.1 | 0.00 | 0.00 | 0.00 | 27 | 1016.1 |
| 20260502235229 | 20 | 203 | 14.5 | 20.9 | 0.00 | 0.00 | 0.00 | 28 | 1016.2 |
| 20260502234740 | 20 | 230 | 16.1 | 20.9 | 0.00 | 0.00 | 0.00 | 28 | 1016.2 |
| 20260502234533 | 20 | 209 | 11.3 | 22.5 | 0.00 | 0.00 | 0.00 | 28 | 1016.4 |
| 20260502234225 | 20 | 189 | 12.9 | 22.5 | 0.00 | 0.00 | 0.00 | 29 | 1016.3 |
| 20260502233732 | 20 | 219 | 16.1 | 22.5 | 0.00 | 0.00 | 0.00 | 28 | 1016.4 |
| 20260502233243 | 20 | 207 | 16.1 | 24.1 | 0.00 | 0.00 | 0.00 | 27 | 1016.5 |
| 20260502233019 | 20 | 221 | 11.3 | 24.1 | 0.00 | 0.00 | 0.00 | 28 | 1016.6 |
| 20260502232726 | 20 | 190 | 11.3 | 25.7 | 0.00 | 0.00 | 0.00 | 28 | 1016.4 |
| 20260502232237 | 20 | 230 | 14.5 | 25.7 | 0.00 | 0.00 | 0.00 | 27 | 1016.5 |
| 20260502231748 | 20 | 211 | 16.1 | 24.1 | 0.00 | 0.00 | 0.00 | 26 | 1016.6 |
| 20260502231510 | 20 | 227 | 11.3 | 20.9 | 0.00 | 0.00 | 0.00 | 28 | 1016.7 |
| 20260502231241 | 20 | 217 | 9.7 | 20.9 | 0.00 | 0.00 | 0.00 | 30 | 1016.6 |
| 20260502230807 | 20 | 213 | 14.5 | 27.4 | 0.00 | 0.00 | 0.00 | 27 | 1016.6 |
| 20260502230231 | 20 | 205 | 16.1 | 27.4 | 0.00 | 0.00 | 0.00 | 28 | 1016.7 |
| 20260502230045 | 20 | 209 | 19.3 | 27.4 | 0.00 | 0.00 | 0.00 | 28 | 1016.9 |
| 20260502225803 | 20 | 176 | 11.3 | 24.1 | 0.00 | 0.00 | 0.00 | 28 | 1016.8 |
| 20260502225224 | 20 | 219 | 9.7 | 16.1 | 0.00 | 0.00 | 0.00 | 29 | 1016.8 |
| 20260502224758 | 20 | 178 | 11.3 | 22.5 | 0.00 | 0.00 | 0.00 | 28 | 1016.8 |
| 20260502224507 | 20 | 192 | 8.0 | 25.7 | 0.00 | 0.00 | 0.00 | 29 | 1017.0 |
| 20260502224223 | 20 | 224 | 14.5 | 25.7 | 0.00 | 0.00 | 0.00 | 28 | 1016.9 |
| 20260502223732 | 20 | 218 | 14.5 | 24.1 | 0.00 | 0.00 | 0.00 | 29 | 1017.0 |
| 20260502223238 | 20 | 242 | 11.3 | 29.0 | 0.00 | 0.00 | 0.00 | 29 | 1017.1 |
| 20260502223009 | 19 | 262 | 14.5 | 29.0 | 0.00 | 0.00 | 0.00 | 28 | 1017.3 |